Weather in Gremyach

Ukraine / Chernihiv Region     52°20′26″N   33°17′18″E
temp.,
°C
wind,
m/s
gust,
m/s
humid.,
%
clouds,
%
prec.,
mm/h
press.,
hPa
HPBL,
m
19 june, sat
sat1900:00+15e39930 0.0 1024156
03:00+14ene36950 0.0 1024112
06:00+15e38920 0.0 1024191
09:00+21e56751 0.0 1024491
12:00+25ese56650 0.0 10231011
15:00+26ese56629 0.0 10221269
18:00+25ese46720 0.0 10221085
21:00+20e36900 0.0 1022113
20 june, sun
sun2000:00+18ese39940 0.0 1022175
03:00+16e37945 0.0 1022134
06:00+16e39916 0.0 1022213
09:00+21e5873100 0.0 1021466
12:00+24ese676136 0.0 1021859
15:00+25ese6760100 0.0 1020943
18:00+24ese5872100 0.0 1019776
21:00+20e4987100 0.0 1019180
21 june, mon
mon2100:00+17e41094100 0.0 1018195
03:00+17ene4890100 0.0 1018178
06:00+17ene4118777 0.0 1017253
09:00+21e59755 1.6 1017421
12:00+26ese7106093 0.0 1016901
15:00+28ese695930 0.0 10161014
18:00+26ese6107049 0.0 1016965
21:00+21e41188100 0.0 1016243
22 june, tue
tue2200:00+19ese410935 0.0 1016202
03:00+18ese389441 0.0 1016137
06:00+18ese39885 0.0 1016194
09:00+23ese57705 0.0 1016382
12:00+27se575798 0.0 1017802
15:00+28se61058100 0.0 10161155
18:00+26ese61068100 0.0 1016667
21:00+22ese4118896 0.0 1017212
23 june, wed
wed2300:00+20ese3592100 0.0 101774
03:00+19e36951 0.0 1017108
06:00+20ene499299 0.0 1018207
09:00+25e51170100 0.0 1017537
12:00+29ese6960100 0.0 1017889
15:00+30ese6959100 0.0 10171084
18:00+28ese6106665 0.0 1017712
21:00+23ese4108673 0.0 1018190